User: anonymous   Login
Location: Caltech
(34.1382°N, 118.1253°W)
Time: 16:41:04
(UTC-07:00)
Language:

BREEZE M DEB (TANK) - Orbit

View from above orbital plane
View from above orbital plane
View from above satellite
View from above satellite

Ground track
Ground track

The orbit data is extracted from the following two-line orbital elements,

1 33437U 08057B   15140.46581684  .00004225  00000-0  85552-3 0  9994
2 33437 049.5532 174.2612 5014865 244.9208 322.5805 05.57719981131418
Epoch (UTC): 20 May 2015 11:10:46
Eccentricity: 0.5014865
inclination: 49.5532°
perigee height: 317 km
apogee height: 13789 km
right ascension of ascending node: 174.2612°
argument of perigee: 244.9208°
revolutions per day: 5.57719981
mean anomaly at epoch: 322.5805°
orbit number at epoch: 13141

The dashed part of the orbit path shows where the satellite is in the earth's shadow,  

DLR